Regional Weather Roundup
Issued by NWS Cleveland, OH

Home | Current Version | Previous Version | Text Only | Print | Product List | Glossary On
Versions: 1 2 3 4 5 6 7 8 9 10 11 12 13 14 15 16 17 18 19 20 21 22 23 24 25 26 27 28 29 30 31 32 33 34 35 36 37 38 39 40 41 42 43 44 45 46 47 48 49 50
000
ASUS41 KCLE 202310
RWRCLE
OHIO REGIONAL WEATHER ROUNDUP
NATIONAL WEATHER SERVICE CLEVELAND, OH
600 PM EST SAT DEC 20 2014

NOTE: "FAIR" INDICATES FEW OR NO CLOUDS BELOW 12,000 FEET WITH NO
SIGNIFICANT WEATHER AND/OR OBSTRUCTIONS TO VISIBILITY.

OHZ001>008-015>018-024>027-034-035-043-044-210000-
   NORTHWEST OHIO

CITY           SKY/WX    TMP DP  RH WIND       PRES   REMARKS
DEFIANCE       CLOUDY    31  23  72 CALM      30.28R
FINDLAY        CLOUDY    31  23  72 S5        30.26R WCI  26
TOLEDO EXPRESS CLOUDY    30  21  69 CALM      30.27S
TOLEDO EXEC    CLOUDY    31  23  72 SE5       30.29R WCI  26
LIMA           CLOUDY    33  24  69 SW3       30.25S
$$

OHZ009>014-019>023-028>033-038-089-210000-
   NORTHEAST OHIO

CITY           SKY/WX    TMP DP  RH WIND       PRES   REMARKS
CLE-HOPKINS    CLOUDY    30  22  72 W5        30.30R WCI  25
CLE-LAKEFRONT  CLOUDY    32  22  66 W6        30.27S WCI  26
CUY CO. ARPT   CLOUDY    32  25  74 W6        30.27S WCI  26
LORAIN-ELYRIA  CLOUDY    30  21  69 CALM      30.28R
ASHTABULA      CLOUDY    30  21  69 CALM      30.27R
AKRON-CANTON   CLOUDY    30  20  66 CALM      30.25R
WOOSTER        CLOUDY    28  20  71 CALM      30.26R
MANSFIELD      CLOUDY    29  23  78 NW3       30.24S
YOUNGSTOWN     CLOUDY    29  21  72 CALM      30.25R
$$

OHZ042-051>053-060>062-070>072-077>081-210000-
  SOUTHWEST OHIO

CITY           SKY/WX    TMP DP  RH WIND       PRES   REMARKS
CINC-COVINGTON CLOUDY    32  24  72 N3        30.28R
CINC-LUNKEN    CLOUDY    32  26  78 CALM      30.31R
HAMILTON       CLOUDY    32  26  78 CALM      30.30R
DAYTON         CLOUDY    31  22  69 CALM      30.28R
WRIGHT-PAT AFB MOCLDY    31  22  70 CALM      30.28R
DAYTON GENERAL CLOUDY    31  25  78 CALM      30.26R
WILMINGTON     CLOUDY    29  23  78 N3        30.27R
$$

OHZ036-037-039>041-045>050-054>059-063>069-073>076-082>088-210000-
  CENTRAL AND SOUTHEAST OHIO

CITY           SKY/WX    TMP DP  RH WIND       PRES   REMARKS
COLUMBUS       CLOUDY    30  23  75 N5        30.27R WCI  25
OSU AIRPORT    CLOUDY    30  23  75 NW3       30.26S
BOLTON FIELD   CLOUDY    30  25  80 CALM      30.27R
RICKENBACK AFB CLOUDY    30  24  78 CALM      30.27R
NEWARK         CLOUDY    31  24  75 CALM      30.26R
MARION         CLOUDY    29  24  82 CALM      30.26R HAZE
LANCASTER      CLOUDY    35  26  69 CALM      30.27R
ZANESVILLE     CLOUDY    30  22  72 NW3       30.26R
NEW PHILLY     CLOUDY    31  21  66 CALM      30.27R
$$



USA.gov is the U.S. government's official web portal to all federal, state and local government web resources and services.